| time (UTC) | temp F | wind direction | speed MPH | gust MPH | rain 1hr in | rain 24hr in | rain mn in | humidity % | barometer mb |
| 20260904173537 | 55 | 0.0 | 2.0 | 0.01 | 0.01 | 0.01 | 84 | 995.6 | |
| 20260904172517 | 56 | 203 | 1.0 | 3.0 | 0.01 | 0.01 | 0.01 | 82 | 995.6 |
| 20260904171517 | 56 | 225 | 3.0 | 8.0 | 0.01 | 0.01 | 0.01 | 80 | 995.5 |
| 20260904170517 | 57 | 225 | 3.0 | 8.0 | 0.00 | 0.00 | 0.00 | 77 | 995.6 |
| 20260904165537 | 58 | 203 | 5.0 | 8.0 | 0.00 | 0.00 | 0.00 | 71 | 995.5 |
| 20260904164517 | 59 | 203 | 6.0 | 12.0 | 0.00 | 0.00 | 0.00 | 70 | 995.6 |
| 20260904163537 | 60 | 180 | 5.0 | 10.0 | 0.00 | 0.00 | 0.00 | 66 | 995.5 |
| 20260904162517 | 61 | 23 | 2.0 | 4.0 | 0.00 | 0.00 | 0.00 | 64 | 995.4 |
| 20260904161517 | 61 | 23 | 2.0 | 5.0 | 0.00 | 0.00 | 0.00 | 62 | 995.5 |
| 20260904160517 | 61 | 23 | 2.0 | 4.0 | 0.00 | 0.00 | 0.00 | 64 | 995.5 |
| 20260904155517 | 61 | 23 | 2.0 | 3.0 | 0.00 | 0.00 | 0.00 | 62 | 995.5 |
| 20260904154517 | 61 | 23 | 2.0 | 5.0 | 0.00 | 0.00 | 0.00 | 60 | 995.6 |
| 20260904153517 | 61 | 23 | 2.0 | 4.0 | 0.00 | 0.00 | 0.00 | 59 | 995.7 |
| 20260904152537 | 62 | 23 | 2.0 | 4.0 | 0.00 | 0.00 | 0.00 | 59 | 995.8 |
| 20260904151517 | 62 | 23 | 2.0 | 3.0 | 0.00 | 0.00 | 0.00 | 59 | 995.9 |
| 20260904150517 | 62 | 23 | 2.0 | 5.0 | 0.00 | 0.00 | 0.00 | 57 | 995.9 |
| 20260904145517 | 62 | 45 | 2.0 | 4.0 | 0.00 | 0.00 | 0.00 | 58 | 995.9 |
| 20260904144517 | 62 | 23 | 2.0 | 3.0 | 0.00 | 0.00 | 0.00 | 59 | 996.0 |
| 20260904143517 | 62 | 23 | 2.0 | 3.0 | 0.00 | 0.00 | 0.00 | 58 | 996.0 |
| 20260904142517 | 62 | 0.0 | 2.0 | 0.00 | 0.00 | 0.00 | 58 | 996.2 | |
| 20260904141517 | 62 | 135 | 1.0 | 2.0 | 0.00 | 0.00 | 0.00 | 61 | 996.1 |
| 20260904140517 | 62 | 0.0 | 1.0 | 0.00 | 0.00 | 0.00 | 59 | 996.3 | |
| 20260904135537 | 63 | 113 | 2.0 | 4.0 | 0.00 | 0.00 | 0.00 | 55 | 996.4 |
| 20260904134517 | 63 | 45 | 1.0 | 4.0 | 0.00 | 0.00 | 0.00 | 52 | 996.4 |
| 20260904133517 | 64 | 0 | 3.0 | 7.0 | 0.00 | 0.00 | 0.00 | 52 | 996.5 |
| 20260904132517 | 64 | 23 | 3.0 | 5.0 | 0.00 | 0.00 | 0.00 | 51 | 996.5 |
| 20260904131517 | 64 | 23 | 2.0 | 4.0 | 0.00 | 0.00 | 0.00 | 52 | 996.7 |
| 20260904130517 | 63 | 45 | 1.0 | 3.0 | 0.00 | 0.00 | 0.00 | 58 | 996.7 |
| 20260904125517 | 63 | 113 | 2.0 | 5.0 | 0.00 | 0.00 | 0.00 | 56 | 996.8 |
| 20260904124517 | 63 | 113 | 3.0 | 8.0 | 0.00 | 0.00 | 0.00 | 56 | 996.9 |
| 20260904123517 | 63 | 90 | 2.0 | 5.0 | 0.00 | 0.00 | 0.00 | 56 | 997.0 |
| 20260904122517 | 63 | 135 | 3.0 | 6.0 | 0.00 | 0.00 | 0.00 | 57 | 997.1 |
| 20260904121517 | 63 | 135 | 3.0 | 6.0 | 0.00 | 0.00 | 0.00 | 55 | 997.1 |
| 20260904120517 | 63 | 180 | 3.0 | 5.0 | 0.00 | 0.00 | 0.00 | 55 | 997.3 |
| 20260904115517 | 63 | 113 | 4.0 | 7.0 | 0.00 | 0.00 | 0.00 | 56 | 997.4 |
| 20260904114517 | 64 | 90 | 2.0 | 3.0 | 0.00 | 0.00 | 0.00 | 52 | 997.5 |
| 20260904113517 | 63 | 45 | 2.0 | 5.0 | 0.00 | 0.00 | 0.00 | 60 | 997.7 |
| 20260904112517 | 62 | 135 | 1.0 | 3.0 | 0.00 | 0.00 | 0.00 | 60 | 997.7 |
| 20260904111517 | 61 | 23 | 2.0 | 3.0 | 0.00 | 0.00 | 0.00 | 59 | 997.9 |
| 20260904110537 | 61 | 45 | 1.0 | 3.0 | 0.00 | 0.00 | 0.00 | 60 | 998.0 |
| 20260904105517 | 61 | 135 | 2.0 | 3.0 | 0.00 | 0.00 | 0.00 | 62 | 998.1 |
| 20260904104517 | 61 | 113 | 2.0 | 3.0 | 0.00 | 0.00 | 0.00 | 63 | 998.2 |
| 20260904103538 | 61 | 113 | 2.0 | 4.0 | 0.00 | 0.00 | 0.00 | 64 | 998.2 |
| 20260904102557 | 60 | 90 | 1.0 | 4.0 | 0.00 | 0.00 | 0.00 | 64 | 998.3 |
| 20260904101537 | 60 | 203 | 1.0 | 3.0 | 0.00 | 0.00 | 0.00 | 66 | 998.4 |
| 20260904100517 | 60 | 113 | 2.0 | 8.0 | 0.00 | 0.00 | 0.00 | 67 | 998.5 |
| 20260904095517 | 59 | 0 | 2.0 | 5.0 | 0.00 | 0.00 | 0.00 | 67 | 998.6 |
| 20260904094517 | 58 | 0 | 3.0 | 5.0 | 0.00 | 0.00 | 0.00 | 66 | 998.7 |
| 20260904093517 | 58 | 113 | 2.0 | 4.0 | 0.00 | 0.00 | 0.00 | 68 | 998.8 |
| 20260904092517 | 58 | 135 | 3.0 | 7.0 | 0.00 | 0.00 | 0.00 | 69 | 998.9 |
| 20260904091517 | 57 | 135 | 4.0 | 8.0 | 0.00 | 0.00 | 0.00 | 72 | 999.0 |
| 20260904090517 | 57 | 68 | 1.0 | 4.0 | 0.00 | 0.00 | 0.00 | 72 | 999.0 |
| 20260904085517 | 57 | 135 | 3.0 | 7.0 | 0.00 | 0.00 | 0.00 | 75 | 999.1 |
| 20260904084537 | 56 | 113 | 2.0 | 3.0 | 0.00 | 0.00 | 0.00 | 77 | 999.1 |
| 20260904083517 | 55 | 90 | 3.0 | 6.0 | 0.00 | 0.00 | 0.00 | 76 | 999.1 |
| 20260904082517 | 55 | 45 | 1.0 | 3.0 | 0.00 | 0.00 | 0.00 | 78 | 999.2 |
| 20260904081517 | 54 | 113 | 2.0 | 5.0 | 0.00 | 0.00 | 0.00 | 80 | 999.3 |
| 20260904080517 | 53 | 0.0 | 1.0 | 0.00 | 0.00 | 0.00 | 80 | 999.3 | |
| 20260904075517 | 53 | 45 | 1.0 | 3.0 | 0.00 | 0.00 | 0.00 | 82 | 999.4 |
| 20260904074516 | 52 | 270 | 1.0 | 3.0 | 0.00 | 0.00 | 0.00 | 84 | 999.3 |
| 20260904073517 | 51 | 0 | 1.0 | 3.0 | 0.00 | 0.00 | 0.00 | 86 | 999.4 |
| 20260904072517 | 51 | 0 | 2.0 | 3.0 | 0.00 | 0.00 | 0.00 | 88 | 999.4 |
| 20260904071537 | 50 | 293 | 1.0 | 3.0 | 0.00 | 0.00 | 0.00 | 89 | 999.7 |
| 20260904070517 | 49 | 293 | 2.0 | 4.0 | 0.00 | 0.00 | 0.00 | 89 | 999.7 |
| 20260904065516 | 49 | 293 | 2.0 | 4.0 | 0.00 | 0.00 | 0.00 | 89 | 999.8 |
| 20260904064516 | 48 | 338 | 1.0 | 2.0 | 0.00 | 0.00 | 0.00 | 90 | 999.8 |
| 20260904063517 | 48 | 293 | 1.0 | 2.0 | 0.00 | 0.00 | 0.00 | 92 | 1000.0 |
| 20260904062516 | 47 | 293 | 1.0 | 4.0 | 0.00 | 0.00 | 0.00 | 93 | 1000.0 |
| 20260904061517 | 46 | 293 | 2.0 | 6.0 | 0.00 | 0.00 | 0.00 | 95 | 999.9 |
| 20260904060516 | 45 | 293 | 1.0 | 4.0 | 0.00 | 0.00 | 0.00 | 96 | 1000.0 |
| 20260904055517 | 44 | 338 | 1.0 | 2.0 | 0.00 | 0.00 | 0.00 | 96 | 1000.1 |
| 20260904054517 | 43 | 293 | 1.0 | 3.0 | 0.00 | 0.00 | 0.00 | 96 | 1000.0 |
| 20260904053516 | 42 | 293 | 1.0 | 2.0 | 0.00 | 0.00 | 0.00 | 96 | 1000.1 |
| 20260904052516 | 41 | 0.0 | 1.0 | 0.00 | 0.00 | 0.00 | 96 | 1000.2 | |
| 20260904051517 | 41 | 293 | 1.0 | 2.0 | 0.00 | 0.00 | 0.00 | 96 | 1000.1 |
| 20260904050537 | 39 | 0.0 | 1.0 | 0.00 | 0.00 | 0.00 | 95 | 1000.2 | |
| 20260904045517 | 39 | 293 | 1.0 | 2.0 | 0.00 | 0.00 | 0.00 | 95 | 1000.2 |
| 20260904044517 | 39 | 293 | 1.0 | 3.0 | 0.00 | 0.00 | 0.00 | 95 | 1000.3 |
| 20260904043537 | 39 | 0.0 | 0.0 | 0.00 | 0.00 | 0.00 | 94 | 1000.2 | |
| 20260904042516 | 39 | 0.0 | 2.0 | 0.00 | 0.00 | 0.00 | 94 | 1000.3 | |
| 20260904041517 | 39 | 0.0 | 1.0 | 0.00 | 0.00 | 0.00 | 94 | 1000.3 | |
| 20260904040557 | 39 | 293 | 1.0 | 1.0 | 0.00 | 0.00 | 0.00 | 94 | 1000.3 |
| 20260904035536 | 39 | 293 | 1.0 | 2.0 | 0.00 | 0.00 | 0.00 | 94 | 1000.3 |
| 20260904034517 | 39 | 0.0 | 1.0 | 0.00 | 0.00 | 0.00 | 93 | 1000.4 | |
| 20260904033516 | 40 | 0.0 | 1.0 | 0.00 | 0.00 | 0.00 | 94 | 1000.4 | |
| 20260904032516 | 40 | 293 | 1.0 | 1.0 | 0.00 | 0.00 | 0.00 | 94 | 1000.4 |
| 20260904031536 | 40 | 0.0 | 2.0 | 0.00 | 0.00 | 0.00 | 94 | 1000.5 | |
| 20260904030537 | 40 | 315 | 1.0 | 3.0 | 0.00 | 0.00 | 0.00 | 94 | 1000.5 |
| 20260904025516 | 40 | 338 | 2.0 | 3.0 | 0.00 | 0.00 | 0.00 | 94 | 1000.6 |
| 20260904024517 | 40 | 338 | 2.0 | 3.0 | 0.00 | 0.00 | 0.00 | 93 | 1000.7 |
| 20260904023517 | 41 | 0 | 1.0 | 2.0 | 0.00 | 0.00 | 0.00 | 93 | 1000.7 |
| 20260904022516 | 41 | 0 | 2.0 | 3.0 | 0.00 | 0.00 | 0.00 | 94 | 1000.7 |
| 20260904021516 | 41 | 0 | 1.0 | 2.0 | 0.00 | 0.00 | 0.00 | 94 | 1000.8 |
| 20260904020536 | 41 | 315 | 3.0 | 5.0 | 0.00 | 0.00 | 0.00 | 94 | 1000.7 |
| 20260904015517 | 41 | 315 | 2.0 | 5.0 | 0.00 | 0.00 | 0.00 | 94 | 1000.8 |
| 20260904014516 | 41 | 293 | 2.0 | 3.0 | 0.00 | 0.00 | 0.00 | 94 | 1000.9 |
| 20260904013516 | 41 | 315 | 3.0 | 4.0 | 0.00 | 0.00 | 0.00 | 94 | 1001.0 |
| 20260904012517 | 41 | 293 | 2.0 | 4.0 | 0.00 | 0.00 | 0.00 | 94 | 1001.0 |
| 20260904011517 | 41 | 315 | 1.0 | 3.0 | 0.00 | 0.00 | 0.00 | 93 | 1001.1 |
| 20260904010517 | 41 | 293 | 1.0 | 2.0 | 0.00 | 0.00 | 0.00 | 93 | 1001.2 |
| 20260904005516 | 41 | 293 | 1.0 | 2.0 | 0.00 | 0.00 | 0.00 | 93 | 1001.3 |
| 20260904004537 | 41 | 0.0 | 1.0 | 0.00 | 0.00 | 0.00 | 93 | 1001.4 | |
| 20260904003516 | 42 | 0.0 | 1.0 | 0.00 | 0.00 | 0.00 | 93 | 1001.5 | |
| 20260904002516 | 42 | 293 | 1.0 | 1.0 | 0.00 | 0.00 | 0.00 | 92 | 1001.6 |
| 20260904001516 | 42 | 0.0 | 1.0 | 0.00 | 0.00 | 0.00 | 93 | 1001.6 | |
| 20260904000516 | 42 | 293 | 1.0 | 2.0 | 0.00 | 0.00 | 0.00 | 93 | 1001.7 |
| 20260903235516 | 42 | 270 | 2.0 | 3.0 | 0.00 | 0.00 | 0.00 | 92 | 1001.7 |
| 20260903234556 | 43 | 338 | 1.0 | 2.0 | 0.00 | 0.00 | 0.00 | 92 | 1001.8 |
| 20260903233516 | 43 | 0.0 | 2.0 | 0.00 | 0.00 | 0.00 | 92 | 1001.8 | |
| 20260903232516 | 43 | 0.0 | 1.0 | 0.00 | 0.00 | 0.00 | 92 | 1001.8 | |
| 20260903231516 | 43 | 0.0 | 0.0 | 0.00 | 0.00 | 0.00 | 91 | 1001.9 | |
| 20260903230516 | 44 | 0.0 | 0.0 | 0.00 | 0.00 | 0.00 | 91 | 1001.9 | |
| 20260903225537 | 44 | 0.0 | 1.0 | 0.00 | 0.00 | 0.00 | 91 | 1001.9 | |
| 20260903224516 | 44 | 0.0 | 2.0 | 0.00 | 0.00 | 0.00 | 90 | 1002.0 | |
| 20260903223516 | 44 | 0.0 | 1.0 | 0.00 | 0.00 | 0.00 | 90 | 1001.8 | |
| 20260903222516 | 45 | 0.0 | 1.0 | 0.00 | 0.00 | 0.00 | 90 | 1002.0 | |
| 20260903221516 | 45 | 0.0 | 0.0 | 0.00 | 0.00 | 0.00 | 90 | 1002.1 | |
| 20260903220516 | 46 | 338 | 1.0 | 1.0 | 0.00 | 0.00 | 0.00 | 89 | 1002.1 |
| 20260903215515 | 46 | 0.0 | 1.0 | 0.00 | 0.00 | 0.00 | 89 | 1002.1 | |
| 20260903214516 | 46 | 0.0 | 1.0 | 0.00 | 0.00 | 0.00 | 89 | 1002.2 | |
| 20260903213516 | 46 | 338 | 1.0 | 2.0 | 0.00 | 0.00 | 0.00 | 89 | 1002.2 |
| 20260903212515 | 47 | 338 | 1.0 | 2.0 | 0.00 | 0.00 | 0.00 | 88 | 1002.2 |
| 20260903211516 | 47 | 338 | 2.0 | 3.0 | 0.00 | 0.00 | 0.00 | 87 | 1002.2 |
| 20260903210515 | 47 | 0.0 | 2.0 | 0.00 | 0.00 | 0.00 | 87 | 1002.2 | |
| 20260903205516 | 47 | 0.0 | 1.0 | 0.00 | 0.00 | 0.00 | 88 | 1002.2 | |
| 20260903204516 | 47 | 338 | 1.0 | 2.0 | 0.00 | 0.00 | 0.00 | 88 | 1002.2 |
| 20260903203515 | 47 | 338 | 1.0 | 2.0 | 0.00 | 0.00 | 0.00 | 88 | 1002.1 |
| 20260903202516 | 47 | 0.0 | 1.0 | 0.00 | 0.00 | 0.00 | 87 | 1002.2 | |
| 20260903201516 | 47 | 338 | 1.0 | 2.0 | 0.00 | 0.00 | 0.00 | 86 | 1002.2 |
| 20260903200516 | 48 | 338 | 1.0 | 3.0 | 0.00 | 0.00 | 0.00 | 86 | 1002.3 |
| 20260903195535 | 48 | 0.0 | 0.0 | 0.00 | 0.00 | 0.00 | 85 | 1002.2 | |
| 20260903194516 | 48 | 338 | 1.0 | 2.0 | 0.00 | 0.00 | 0.00 | 83 | 1002.3 |
| 20260903193517 | 49 | 338 | 1.0 | 2.0 | 0.00 | 0.00 | 0.00 | 83 | 1002.4 |
| 20260903192515 | 49 | 0.0 | 1.0 | 0.00 | 0.00 | 0.00 | 82 | 1002.5 | |
| 20260903191516 | 50 | 0.0 | 1.0 | 0.00 | 0.00 | 0.00 | 80 | 1002.4 | |
| 20260903190515 | 51 | 338 | 1.0 | 2.0 | 0.00 | 0.00 | 0.00 | 79 | 1002.5 |
| 20260903185516 | 51 | 338 | 1.0 | 2.0 | 0.00 | 0.00 | 0.00 | 78 | 1002.5 |
| 20260903184515 | 52 | 270 | 2.0 | 3.0 | 0.00 | 0.00 | 0.00 | 76 | 1002.6 |
| 20260903183516 | 53 | 0.0 | 1.0 | 0.00 | 0.00 | 0.00 | 74 | 1002.5 | |
| 20260903182516 | 54 | 203 | 1.0 | 1.0 | 0.00 | 0.00 | 0.00 | 72 | 1002.7 |
| 20260903181535 | 55 | 225 | 2.0 | 3.0 | 0.00 | 0.00 | 0.00 | 71 | 1002.7 |
| 20260903180515 | 56 | 0.0 | 1.0 | 0.00 | 0.00 | 0.00 | 68 | 1002.6 | |
| 20260903175515 | 57 | 315 | 1.0 | 2.0 | 0.00 | 0.00 | 0.00 | 65 | 1002.6 |
| 20260903174516 | 58 | 315 | 2.0 | 3.0 | 0.00 | 0.00 | 0.00 | 62 | 1002.7 |